Location: Columbia
(38.9520°N, 92.3340°W)
Time: 17:10:26
(UTC-05:00)

Iridium 22 - Visible Passes

Search period start: 27 March 2015 00:00
Search period end: 06 April 2015 00:00
Orbit: 776 x 779 km, 86.4° (Epoch: 26 March)

Date Brightness Start Highest point End Pass type
(mag) Time Alt. Az. Time Alt. Az. Time Alt. Az.
27 Mar 5.8 04:30:00 62° ESE 04:30:17 64° E 04:35:28 10° N visible
27 Mar 7.2 06:10:29 13° W 06:11:37 14° WNW 06:14:04 10° NW visible
28 Mar 6.9 03:56:51 34° E 03:56:52 34° E 04:01:34 10° NNE visible
28 Mar 6.5 05:37:20 25° W 05:37:42 25° WNW 05:41:55 10° NNW visible
29 Mar 7.8 03:23:40 18° E 03:23:40 18° E 03:27:09 10° NE visible
29 Mar 5.8 05:04:10 46° WNW 05:04:10 46° WNW 05:08:58 10° N visible
30 Mar 5.6 04:30:57 71° N 04:30:57 71° N 04:35:36 10° N visible
31 Mar 6.5 03:57:43 45° ENE 03:57:43 45° ENE 04:01:55 10° NNE visible
31 Mar 7.0 05:38:11 18° WNW 05:38:11 18° WNW 05:41:21 10° NW visible
01 Apr 7.4 03:24:27 25° ENE 03:24:27 25° ENE 03:27:51 10° NNE visible
01 Apr 6.4 05:04:56 30° WNW 05:04:56 30° WNW 05:08:46 10° NNW visible
02 Apr 8.2 02:51:11 14° ENE 02:51:11 14° ENE 02:53:03 10° NE visible
02 Apr 6.0 04:31:39 47° NW 04:31:39 47° NW 04:35:38 10° N visible
03 Apr 6.3 03:58:22 48° NNE 03:58:22 48° NNE 04:02:08 10° N visible
03 Apr 7.5 05:38:50 12° WNW 05:38:50 12° WNW 05:40:07 10° NW visible
04 Apr 7.1 03:25:03 31° NE 03:25:03 31° NE 03:28:19 10° NNE visible
04 Apr 7.0 05:05:31 21° WNW 05:05:31 21° WNW 05:08:23 10° NNW visible
05 Apr 7.9 02:51:43 19° ENE 02:51:43 19° ENE 02:54:02 10° NNE visible
05 Apr 6.5 04:32:12 32° NW 04:32:12 32° NW 04:35:31 10° NNW visible
